When you browse on this site, cookies collect data to enhance your experience and personalize the content and advertising you see.
Visit our Privacy Policy to learn more. By continuing to use the site, you agree to this use of cookies and data.
  • In Germany
  • List of Countries
  • For 7 days
  • Water Temperature
  • Weather Map
  • Weather Widgets
  • user-avatar
    Login

    Hourly Weather Ocotal

    Today, 31 March, Tuesday

    Time Temperature Precipitation Wind Pressure Humidity
    00:00 +22°C° 0 mm 1 mps 707 mmHg 92%
    01:00 +21°C° 0 mm 1 mps 707 mmHg 93%
    02:00 +21°C° 0 mm 1 mps 707 mmHg 94%
    03:00 +21°C° 0 mm 1 mps 707 mmHg 95%
    04:00 +21°C° 0 mm 1 mps 707 mmHg 95%
    05:00 +21°C° 0 mm 1 mps 707 mmHg 96%
    06:00 +20°C° 0 mm 1 mps 707 mmHg 97%
    07:00 +24°C° 0 mm 1 mps 708 mmHg 77%
    08:00 +27°C° 0 mm 2 mps 708 mmHg 57%
    09:00 +30°C° 0 mm 2 mps 709 mmHg 37%
    10:00 +32°C° 0 mm 2 mps 709 mmHg 32%
    11:00 +35°C° 0 mm 2 mps 708 mmHg 27%
    12:00 +37°C° 0 mm 3 mps 708 mmHg 21%
    13:00 +38°C° 0 mm 2 mps 707 mmHg 21%
    14:00 +38°C° 0 mm 2 mps 706 mmHg 21%
    15:00 +38°C° 0 mm 2 mps 706 mmHg 21%
    16:00 +36°C° 0 mm 2 mps 706 mmHg 28%
    17:00 +34°C° 0 mm 2 mps 706 mmHg 35%
    18:00 +30°C° 0 mm 2 mps 706 mmHg 42%
    19:00 +28°C° 0 mm 2 mps 706 mmHg 53%
    20:00 +26°C° 0 mm 1 mps 706 mmHg 64%
    21:00 +22°C° 0 mm 0 mps 707 mmHg 76%
    22:00 +22°C° 0 mm 0 mps 707 mmHg 80%
    23:00 +21°C° 0 mm 0 mps 707 mmHg 85%

    Tomorrow, 1 April, Wednesday

    Time Temperature Precipitation Wind Pressure Humidity
    00:00 +20°C° 0 mm 0 mps 706 mmHg 90%
    01:00 +20°C° 0 mm 0 mps 706 mmHg 91%
    02:00 +20°C° 0 mm 0 mps 706 mmHg 93%
    03:00 +19°C° 0 mm 0 mps 706 mmHg 94%
    04:00 +19°C° 0 mm 0 mps 706 mmHg 95%
    05:00 +19°C° 0 mm 0 mps 706 mmHg 95%
    06:00 +19°C° 0 mm 0 mps 706 mmHg 96%
    07:00 +23°C° 0 mm 0 mps 707 mmHg 80%
    08:00 +27°C° 0 mm 0 mps 708 mmHg 65%
    09:00 +32°C° 0 mm 1 mps 709 mmHg 50%
    10:00 +34°C° 0 mm 1 mps 709 mmHg 44%
    11:00 +35°C° 0 mm 1 mps 708 mmHg 39%
    12:00 +37°C° 0 mm 1 mps 707 mmHg 34%
    13:00 +36°C° 0.1 mm 1 mps 707 mmHg 35%
    14:00 +35°C° 0.1 mm 1 mps 706 mmHg 36%
    15:00 +35°C° 0.1 mm 1 mps 705 mmHg 37%
    16:00 +32°C° 0.7 mm 1 mps 705 mmHg 50%
    17:00 +29°C° 0.7 mm 1 mps 705 mmHg 63%
    18:00 +26°C° 0.7 mm 1 mps 705 mmHg 76%
    19:00 +25°C° 0.5 mm 1 mps 706 mmHg 78%
    20:00 +25°C° 0.5 mm 1 mps 707 mmHg 80%
    21:00 +25°C° 0.5 mm 1 mps 708 mmHg 83%
    22:00 +24°C° 0.1 mm 1 mps 707 mmHg 85%
    23:00 +24°C° 0.1 mm 1 mps 707 mmHg 87%

    Day after tomorrow, 2 April, Thursday

    Time Temperature Precipitation Wind Pressure Humidity
    00:00 +21°C° 0.1 mm 0 mps 707 mmHg 89%
    01:00 +21°C° 0 mm 0 mps 707 mmHg 90%
    02:00 +21°C° 0 mm 0 mps 707 mmHg 91%
    03:00 +20°C° 0 mm 0 mps 707 mmHg 93%
    04:00 +20°C° 0 mm 0 mps 707 mmHg 93%
    05:00 +20°C° 0 mm 0 mps 707 mmHg 94%
    06:00 +20°C° 0 mm 0 mps 707 mmHg 94%
    07:00 +25°C° 0 mm 1 mps 708 mmHg 81%
    08:00 +28°C° 0 mm 1 mps 709 mmHg 68%
    09:00 +31°C° 0 mm 1 mps 709 mmHg 54%
    10:00 +32°C° 0 mm 1 mps 709 mmHg 49%
    11:00 +33°C° 0 mm 1 mps 708 mmHg 43%
    12:00 +36°C° 0 mm 2 mps 707 mmHg 37%
    13:00 +35°C° 0 mm 2 mps 707 mmHg 37%
    14:00 +35°C° 0 mm 2 mps 706 mmHg 37%
    15:00 +35°C° 0 mm 2 mps 705 mmHg 37%
    16:00 +32°C° 0 mm 1 mps 705 mmHg 42%
    17:00 +31°C° 0 mm 1 mps 705 mmHg 47%
    18:00 +29°C° 0 mm 1 mps 705 mmHg 52%
    19:00 +26°C° 0 mm 0 mps 706 mmHg 56%
    20:00 +25°C° 0 mm 0 mps 707 mmHg 60%
    21:00 +23°C° 0 mm 0 mps 707 mmHg 65%
    22:00 +23°C° 0 mm 0 mps 707 mmHg 66%
    23:00 +24°C° 0 mm 1 mps 707 mmHg 68%

    3 April, Friday

    Time Temperature Precipitation Wind Pressure Humidity
    00:00 +24°C° 0 mm 1 mps 707 mmHg 69%
    01:00 +23°C° 0 mm 1 mps 707 mmHg 72%
    02:00 +22°C° 0 mm 1 mps 707 mmHg 74%
    03:00 +22°C° 0 mm 1 mps 707 mmHg 77%
    04:00 +21°C° 0 mm 1 mps 707 mmHg 80%
    05:00 +21°C° 0 mm 1 mps 707 mmHg 82%
    06:00 +20°C° 0 mm 1 mps 707 mmHg 85%
    07:00 +24°C° 0 mm 1 mps 708 mmHg 72%
    08:00 +28°C° 0 mm 1 mps 709 mmHg 58%
    09:00 +32°C° 0 mm 1 mps 710 mmHg 45%
    10:00 +34°C° 0 mm 1 mps 709 mmHg 39%
    11:00 +36°C° 0 mm 1 mps 708 mmHg 32%
    12:00 +39°C° 0 mm 1 mps 708 mmHg 26%
    13:00 +39°C° 0 mm 1 mps 707 mmHg 25%
    14:00 +39°C° 0 mm 1 mps 706 mmHg 23%
    15:00 +39°C° 0 mm 2 mps 705 mmHg 21%
    16:00 +37°C° 0 mm 2 mps 705 mmHg 27%
    17:00 +34°C° 0 mm 2 mps 705 mmHg 32%
    18:00 +31°C° 0 mm 2 mps 705 mmHg 37%
    19:00 +29°C° 0 mm 1 mps 706 mmHg 45%
    20:00 +28°C° 0 mm 1 mps 706 mmHg 52%
    21:00 +24°C° 0 mm 0 mps 707 mmHg 59%
    22:00 +25°C° 0 mm 1 mps 707 mmHg 62%
    23:00 +24°C° 0 mm 1 mps 707 mmHg 65%

    4 April, Saturday

    Time Temperature Precipitation Wind Pressure Humidity
    00:00 +24°C° 0 mm 1 mps 707 mmHg 68%
    01:00 +23°C° 0 mm 1 mps 707 mmHg 69%
    02:00 +23°C° 0 mm 1 mps 706 mmHg 70%
    03:00 +23°C° 0 mm 1 mps 706 mmHg 71%
    04:00 +22°C° 0 mm 1 mps 706 mmHg 75%
    05:00 +21°C° 0 mm 1 mps 706 mmHg 78%
    06:00 +21°C° 0 mm 1 mps 707 mmHg 82%
    07:00 +24°C° 0 mm 1 mps 707 mmHg 69%
    08:00 +27°C° 0 mm 1 mps 708 mmHg 56%
    09:00 +31°C° 0 mm 1 mps 709 mmHg 44%
    10:00 +33°C° 0 mm 1 mps 708 mmHg 38%
    11:00 +35°C° 0 mm 1 mps 708 mmHg 33%
    12:00 +38°C° 0 mm 2 mps 707 mmHg 27%
    13:00 +38°C° 0 mm 2 mps 707 mmHg 26%
    14:00 +38°C° 0 mm 2 mps 706 mmHg 25%
    15:00 +38°C° 0 mm 3 mps 705 mmHg 24%
    16:00 +36°C° 0 mm 2 mps 705 mmHg 28%
    17:00 +34°C° 0 mm 2 mps 705 mmHg 32%
    18:00 +31°C° 0 mm 2 mps 705 mmHg 36%
    19:00 +29°C° 0 mm 2 mps 705 mmHg 42%
    20:00 +27°C° 0 mm 1 mps 706 mmHg 49%
    21:00 +25°C° 0 mm 1 mps 707 mmHg 56%
    22:00 +25°C° 0 mm 1 mps 707 mmHg 60%
    23:00 +24°C° 0 mm 1 mps 707 mmHg 63%

    5 April, Sunday

    Time Temperature Precipitation Wind Pressure Humidity
    00:00 +23°C° 0 mm 1 mps 707 mmHg 66%
    01:00 +23°C° 0 mm 1 mps 706 mmHg 69%
    02:00 +22°C° 0 mm 1 mps 706 mmHg 72%
    03:00 +21°C° 0 mm 1 mps 706 mmHg 74%
    04:00 +21°C° 0 mm 1 mps 706 mmHg 78%
    05:00 +20°C° 0 mm 1 mps 706 mmHg 81%
    06:00 +20°C° 0 mm 1 mps 707 mmHg 84%
    07:00 +23°C° 0 mm 1 mps 707 mmHg 72%
    08:00 +27°C° 0 mm 1 mps 708 mmHg 60%
    09:00 +30°C° 0 mm 2 mps 709 mmHg 48%
    10:00 +32°C° 0 mm 2 mps 709 mmHg 41%
    11:00 +35°C° 0 mm 2 mps 708 mmHg 33%
    12:00 +37°C° 0 mm 3 mps 708 mmHg 26%
    13:00 +37°C° 0 mm 3 mps 707 mmHg 25%
    14:00 +37°C° 0 mm 3 mps 706 mmHg 23%
    15:00 +37°C° 0 mm 3 mps 706 mmHg 22%
    16:00 +35°C° 0 mm 3 mps 706 mmHg 26%
    17:00 +32°C° 0 mm 2 mps 706 mmHg 30%
    18:00 +30°C° 0 mm 2 mps 706 mmHg 34%
    19:00 +28°C° 0 mm 2 mps 707 mmHg 40%
    20:00 +27°C° 0 mm 1 mps 707 mmHg 46%
    21:00 +25°C° 0 mm 1 mps 708 mmHg 52%
    22:00 +24°C° 0 mm 1 mps 708 mmHg 56%
    23:00 +23°C° 0 mm 1 mps 708 mmHg 60%
    Show more